This is the latest recevied weather packets stored in our database for station/object KI4BSX. If no packets are shown the sender has not sent any weather packets the latest 10 day(s).
| Time | Temp. | Humidity | Pressure | Rain* | Wind** | Luminosity | Snow |
|---|---|---|---|---|---|---|---|
| 1778131021 | 17.78° C | 99% | 1016 hPa | 11.94 mm | - | - | - |
| 1778130717 | 17.78° C | 99% | 1016 hPa | 10.67 mm | - | - | - |
| 1778130414 | 17.78° C | 99% | 1016 hPa | 11.94 mm | - | - | - |
| 1778130110 | 17.78° C | 99% | 1016.1 hPa | 7.11 mm | - | - | - |
| 1778129807 | 17.78° C | 99% | 1016 hPa | 1.78 mm | - | - | - |
| 1778129504 | 17.78° C | 99% | 1015.4 hPa | 1.78 mm | - | - | - |
| 1778129201 | 17.78° C | 99% | 1015.4 hPa | 0 mm | - | - | - |
| 1778128898 | 17.78° C | 99% | 1015.6 hPa | 0 mm | - | - | - |
| 1778128593 | 17.78° C | 99% | 1014.9 hPa | 0 mm | - | - | - |
| 1778128291 | 17.78° C | 99% | 1015 hPa | 1.27 mm | - | - | - |
| 1778127987 | 17.78° C | 99% | 1015.2 hPa | 3.05 mm | - | - | - |
| 1778127681 | 17.78° C | 99% | 1015.1 hPa | 6.6 mm | - | - | - |
| 1778127379 | 17.78° C | 98% | 1015 hPa | 8.89 mm | - | - | - |
| 1778127076 | 17.78° C | 98% | 1015.5 hPa | 7.87 mm | - | - | - |
| 1778126773 | 17.78° C | 98% | 1015.6 hPa | 3.05 mm | - | - | - |
| 1778126469 | 17.78° C | 98% | 1015.2 hPa | 3.05 mm | - | - | - |
| 1778126165 | 17.78° C | 98% | 1015.4 hPa | 3.05 mm | - | - | - |
| 1778125861 | 17.78° C | 98% | 1015.4 hPa | 16.76 mm | - | - | - |
| 1778125558 | 17.78° C | 98% | 1015.2 hPa | 23.37 mm | - | - | - |
| 1778125256 | 17.78° C | 98% | 1015.5 hPa | 13.72 mm | - | - | - |
| 1778124954 | 17.78° C | 98% | 1015.7 hPa | 7.87 mm | - | - | - |
| 1778124650 | 17.78° C | 98% | 1015.6 hPa | 4.32 mm | - | - | - |
| 1778124348 | 17.78° C | 97% | 1015.9 hPa | 1.27 mm | - | - | - |
| 1778124044 | 17.78° C | 97% | 1015.7 hPa | 0 mm | - | - | - |
| 1778123740 | 17.78° C | 97% | 1015.4 hPa | 1.78 mm | - | - | - |
* Rain latest hour (hover to see other rain measurements)
** Current wind speed in m/s (hover to see current wind gust speed)